owner,sensor,date,latitude,longitude,vertical_datum,sea_water_temperature,qcFlag 
DISL,ioos:station:DISL:DISL:1,2011-03-01T00:00:00Z,30.2513,-88.0778,-1.72,20.45,2 
DISL,ioos:station:DISL:DISL:1,2011-03-01T00:30:00Z,30.2513,-88.0778,-1.72,19.97,2 
DISL,ioos:station:DISL:DISL:1,2011-03-01T01:00:00Z,30.2513,-88.0778,-1.72,20.39,2 
DISL,ioos:station:DISL:DISL:1,2011-03-01T01:30:00Z,30.2513,-88.0778,-1.72,20.39,2 
DISL,ioos:station:DISL:DISL:1,2011-03-01T02:00:00Z,30.2513,-88.0778,-1.72,20.65,2 
DISL,ioos:station:DISL:DISL:1,2011-03-01T02:30:00Z,30.2513,-88.0778,-1.72,20.8,2 
DISL,ioos:station:DISL:DISL:1,2011-03-01T03:00:00Z,30.2513,-88.0778,-1.72,20.54,2 
DISL,ioos:station:DISL:DISL:1,2011-03-01T03:30:00Z,30.2513,-88.0778,-1.72,20.21,2 
DISL,ioos:station:DISL:DISL:1,2011-03-01T04:00:00Z,30.2513,-88.0778,-1.72,19.86,2 
DISL,ioos:station:DISL:DISL:1,2011-03-01T04:30:00Z,30.2513,-88.0778,-1.72,18.93,2 
DISL,ioos:station:DISL:DISL:1,2011-03-01T05:00:00Z,30.2513,-88.0778,-1.72,19.22,2 
DISL,ioos:station:DISL:DISL:1,2011-03-01T05:30:00Z,30.2513,-88.0778,-1.72,19.19,2 
DISL,ioos:station:DISL:DISL:1,2011-03-01T06:00:00Z,30.2513,-88.0778,-1.72,19.32,2 
DISL,ioos:station:DISL:DISL:1,2011-03-01T06:30:00Z,30.2513,-88.0778,-1.72,19.29,2 
DISL,ioos:station:DISL:DISL:1,2011-03-01T07:00:00Z,30.2513,-88.0778,-1.72,19.27,2 
DISL,ioos:station:DISL:DISL:1,2011-03-01T07:30:00Z,30.2513,-88.0778,-1.72,19.17,2 
DISL,ioos:station:DISL:DISL:1,2011-03-01T08:00:00Z,30.2513,-88.0778,-1.72,19.26,2 
DISL,ioos:station:DISL:DISL:1,2011-03-01T08:30:00Z,30.2513,-88.0778,-1.72,19.22,2 
DISL,ioos:station:DISL:DISL:1,2011-03-01T09:00:00Z,30.2513,-88.0778,-1.72,19.13,2 
DISL,ioos:station:DISL:DISL:1,2011-03-01T09:30:00Z,30.2513,-88.0778,-1.72,19.05,2 
DISL,ioos:station:DISL:DISL:1,2011-03-01T10:00:00Z,30.2513,-88.0778,-1.72,19.06,2 
DISL,ioos:station:DISL:DISL:1,2011-03-01T10:30:00Z,30.2513,-88.0778,-1.72,18.99,2 
DISL,ioos:station:DISL:DISL:1,2011-03-01T11:00:00Z,30.2513,-88.0778,-1.72,18.97,2 
DISL,ioos:station:DISL:DISL:1,2011-03-01T11:30:00Z,30.2513,-88.0778,-1.72,18.94,2 
DISL,ioos:station:DISL:DISL:1,2011-03-01T12:00:00Z,30.2513,-88.0778,-1.72,18.89,2 
DISL,ioos:station:DISL:DISL:1,2011-03-01T12:30:00Z,30.2513,-88.0778,-1.72,18.83,2 
DISL,ioos:station:DISL:DISL:1,2011-03-01T13:00:00Z,30.2513,-88.0778,-1.72,18.77,2 
DISL,ioos:station:DISL:DISL:1,2011-03-01T13:30:00Z,30.2513,-88.0778,-1.72,18.77,2 
DISL,ioos:station:DISL:DISL:1,2011-03-01T14:00:00Z,30.2513,-88.0778,-1.72,18.68,2 
DISL,ioos:station:DISL:DISL:1,2011-03-01T14:30:00Z,30.2513,-88.0778,-1.72,18.65,2 
DISL,ioos:station:DISL:DISL:1,2011-03-01T15:00:00Z,30.2513,-88.0778,-1.72,18.63,2 
DISL,ioos:station:DISL:DISL:1,2011-03-01T15:30:00Z,30.2513,-88.0778,-1.72,18.65,2 
DISL,ioos:station:DISL:DISL:1,2011-03-01T16:00:00Z,30.2513,-88.0778,-1.72,18.79,2 
DISL,ioos:station:DISL:DISL:1,2011-03-01T16:30:00Z,30.2513,-88.0778,-1.72,18.49,2 
DISL,ioos:station:DISL:DISL:1,2011-03-01T17:00:00Z,30.2513,-88.0778,-1.72,18.44,2 
DISL,ioos:station:DISL:DISL:1,2011-03-01T17:30:00Z,30.2513,-88.0778,-1.72,18.44,2 
DISL,ioos:station:DISL:DISL:1,2011-03-01T18:00:00Z,30.2513,-88.0778,-1.72,18.46,2 
DISL,ioos:station:DISL:DISL:1,2011-03-01T18:30:00Z,30.2513,-88.0778,-1.72,18.71,2 
DISL,ioos:station:DISL:DISL:1,2011-03-01T19:00:00Z,30.2513,-88.0778,-1.72,18.88,2 
DISL,ioos:station:DISL:DISL:1,2011-03-01T19:30:00Z,30.2513,-88.0778,-1.72,19.13,2 
DISL,ioos:station:DISL:DISL:1,2011-03-01T20:00:00Z,30.2513,-88.0778,-1.72,19.14,2 
DISL,ioos:station:DISL:DISL:1,2011-03-01T20:30:00Z,30.2513,-88.0778,-1.72,19.2,2 
DISL,ioos:station:DISL:DISL:1,2011-03-01T21:00:00Z,30.2513,-88.0778,-1.72,19.26,2 
DISL,ioos:station:DISL:DISL:1,2011-03-01T21:30:00Z,30.2513,-88.0778,-1.72,19.36,2 
DISL,ioos:station:DISL:DISL:1,2011-03-01T22:00:00Z,30.2513,-88.0778,-1.72,19.45,2 
DISL,ioos:station:DISL:DISL:1,2011-03-01T22:30:00Z,30.2513,-88.0778,-1.72,18.86,2 
DISL,ioos:station:DISL:DISL:1,2011-03-01T23:00:00Z,30.2513,-88.0778,-1.72,18.7,2 
DISL,ioos:station:DISL:DISL:1,2011-03-01T23:30:00Z,30.2513,-88.0778,-1.72,18.72,2 
DISL,ioos:station:DISL:DISL:1,2011-03-02T00:00:00Z,30.2513,-88.0778,-1.72,18.64,2 
DISL,ioos:station:DISL:DISL:1,2011-03-02T00:30:00Z,30.2513,-88.0778,-1.72,18.72,2 
DISL,ioos:station:DISL:DISL:1,2011-03-02T01:00:00Z,30.2513,-88.0778,-1.72,18.64,2 
DISL,ioos:station:DISL:DISL:1,2011-03-02T01:30:00Z,30.2513,-88.0778,-1.72,18.47,2 
DISL,ioos:station:DISL:DISL:1,2011-03-02T02:00:00Z,30.2513,-88.0778,-1.72,18.39,2 
DISL,ioos:station:DISL:DISL:1,2011-03-02T02:30:00Z,30.2513,-88.0778,-1.72,18.26,2 
DISL,ioos:station:DISL:DISL:1,2011-03-02T03:00:00Z,30.2513,-88.0778,-1.72,18.6,2 
DISL,ioos:station:DISL:DISL:1,2011-03-02T03:30:00Z,30.2513,-88.0778,-1.72,18.97,2 
DISL,ioos:station:DISL:DISL:1,2011-03-02T04:00:00Z,30.2513,-88.0778,-1.72,18.94,2 
DISL,ioos:station:DISL:DISL:1,2011-03-02T04:30:00Z,30.2513,-88.0778,-1.72,18.83,2 
DISL,ioos:station:DISL:DISL:1,2011-03-02T05:00:00Z,30.2513,-88.0778,-1.72,18.46,2 
DISL,ioos:station:DISL:DISL:1,2011-03-02T05:30:00Z,30.2513,-88.0778,-1.72,18.52,2 
DISL,ioos:station:DISL:DISL:1,2011-03-02T06:00:00Z,30.2513,-88.0778,-1.72,18.6,2 
DISL,ioos:station:DISL:DISL:1,2011-03-02T06:30:00Z,30.2513,-88.0778,-1.72,18.56,2 
DISL,ioos:station:DISL:DISL:1,2011-03-02T07:00:00Z,30.2513,-88.0778,-1.72,18.7,2 
DISL,ioos:station:DISL:DISL:1,2011-03-02T07:30:00Z,30.2513,-88.0778,-1.72,18.7,2 
DISL,ioos:station:DISL:DISL:1,2011-03-02T08:00:00Z,30.2513,-88.0778,-1.72,18.67,2 
DISL,ioos:station:DISL:DISL:1,2011-03-02T08:30:00Z,30.2513,-88.0778,-1.72,18.71,2 
DISL,ioos:station:DISL:DISL:1,2011-03-02T09:00:00Z,30.2513,-88.0778,-1.72,18.71,2 
DISL,ioos:station:DISL:DISL:1,2011-03-02T09:30:00Z,30.2513,-88.0778,-1.72,18.68,2 
DISL,ioos:station:DISL:DISL:1,2011-03-02T10:00:00Z,30.2513,-88.0778,-1.72,18.66,2 
DISL,ioos:station:DISL:DISL:1,2011-03-02T10:30:00Z,30.2513,-88.0778,-1.72,18.63,2 
DISL,ioos:station:DISL:DISL:1,2011-03-02T11:00:00Z,30.2513,-88.0778,-1.72,18.62,2 
DISL,ioos:station:DISL:DISL:1,2011-03-02T11:30:00Z,30.2513,-88.0778,-1.72,18.63,2 
DISL,ioos:station:DISL:DISL:1,2011-03-02T12:00:00Z,30.2513,-88.0778,-1.72,18.56,2 
DISL,ioos:station:DISL:DISL:1,2011-03-02T12:30:00Z,30.2513,-88.0778,-1.72,18.48,2 
DISL,ioos:station:DISL:DISL:1,2011-03-02T13:00:00Z,30.2513,-88.0778,-1.72,18.46,2 
DISL,ioos:station:DISL:DISL:1,2011-03-02T13:30:00Z,30.2513,-88.0778,-1.72,18.49,2 
DISL,ioos:station:DISL:DISL:1,2011-03-02T14:00:00Z,30.2513,-88.0778,-1.72,18.53,2 
DISL,ioos:station:DISL:DISL:1,2011-03-02T14:30:00Z,30.2513,-88.0778,-1.72,18.54,2 
DISL,ioos:station:DISL:DISL:1,2011-03-02T15:00:00Z,30.2513,-88.0778,-1.72,18.53,2 
DISL,ioos:station:DISL:DISL:1,2011-03-02T15:30:00Z,30.2513,-88.0778,-1.72,18.59,2 
DISL,ioos:station:DISL:DISL:1,2011-03-02T16:00:00Z,30.2513,-88.0778,-1.72,18.64,2 
DISL,ioos:station:DISL:DISL:1,2011-03-02T16:30:00Z,30.2513,-88.0778,-1.72,18.55,2 
DISL,ioos:station:DISL:DISL:1,2011-03-02T17:00:00Z,30.2513,-88.0778,-1.72,18.57,2 
DISL,ioos:station:DISL:DISL:1,2011-03-02T17:30:00Z,30.2513,-88.0778,-1.72,18.62,2 
DISL,ioos:station:DISL:DISL:1,2011-03-02T18:00:00Z,30.2513,-88.0778,-1.72,18.73,2 
DISL,ioos:station:DISL:DISL:1,2011-03-02T18:30:00Z,30.2513,-88.0778,-1.72,18.7,2 
DISL,ioos:station:DISL:DISL:1,2011-03-02T19:00:00Z,30.2513,-88.0778,-1.72,18.65,2 
DISL,ioos:station:DISL:DISL:1,2011-03-02T19:30:00Z,30.2513,-88.0778,-1.72,18.67,2 
DISL,ioos:station:DISL:DISL:1,2011-03-02T20:00:00Z,30.2513,-88.0778,-1.72,18.86,2 
DISL,ioos:station:DISL:DISL:1,2011-03-02T20:30:00Z,30.2513,-88.0778,-1.72,18.97,2 
DISL,ioos:station:DISL:DISL:1,2011-03-02T21:00:00Z,30.2513,-88.0778,-1.72,18.96,2 
DISL,ioos:station:DISL:DISL:1,2011-03-02T21:30:00Z,30.2513,-88.0778,-1.72,18.68,2 
DISL,ioos:station:DISL:DISL:1,2011-03-02T22:00:00Z,30.2513,-88.0778,-1.72,18.71,2 
DISL,ioos:station:DISL:DISL:1,2011-03-02T22:30:00Z,30.2513,-88.0778,-1.72,18.75,2 
DISL,ioos:station:DISL:DISL:1,2011-03-02T23:00:00Z,30.2513,-88.0778,-1.72,18.59,2 
DISL,ioos:station:DISL:DISL:1,2011-03-02T23:30:00Z,30.2513,-88.0778,-1.72,18.43,2 
DISL,ioos:station:DISL:DISL:1,2011-03-03T00:00:00Z,30.2513,-88.0778,-1.72,17.92,2 
DISL,ioos:station:DISL:DISL:1,2011-03-03T00:30:00Z,30.2513,-88.0778,-1.72,17.61,2 
DISL,ioos:station:DISL:DISL:1,2011-03-03T01:00:00Z,30.2513,-88.0778,-1.72,17.49,2 
DISL,ioos:station:DISL:DISL:1,2011-03-03T01:30:00Z,30.2513,-88.0778,-1.72,17.51,2 
DISL,ioos:station:DISL:DISL:1,2011-03-03T02:00:00Z,30.2513,-88.0778,-1.72,17.71,2 
DISL,ioos:station:DISL:DISL:1,2011-03-03T02:30:00Z,30.2513,-88.0778,-1.72,17.69,2 
DISL,ioos:station:DISL:DISL:1,2011-03-03T03:00:00Z,30.2513,-88.0778,-1.72,17.7,2 
DISL,ioos:station:DISL:DISL:1,2011-03-03T03:30:00Z,30.2513,-88.0778,-1.72,18.04,2 
DISL,ioos:station:DISL:DISL:1,2011-03-03T04:00:00Z,30.2513,-88.0778,-1.72,17.97,2 
DISL,ioos:station:DISL:DISL:1,2011-03-03T04:30:00Z,30.2513,-88.0778,-1.72,18.51,2 
DISL,ioos:station:DISL:DISL:1,2011-03-03T05:00:00Z,30.2513,-88.0778,-1.72,18.43,2 
DISL,ioos:station:DISL:DISL:1,2011-03-03T05:30:00Z,30.2513,-88.0778,-1.72,18.37,2 
DISL,ioos:station:DISL:DISL:1,2011-03-03T06:00:00Z,30.2513,-88.0778,-1.72,18.32,2 
DISL,ioos:station:DISL:DISL:1,2011-03-03T06:30:00Z,30.2513,-88.0778,-1.72,18.4,2 
DISL,ioos:station:DISL:DISL:1,2011-03-03T07:00:00Z,30.2513,-88.0778,-1.72,18.55,2 
DISL,ioos:station:DISL:DISL:1,2011-03-03T07:30:00Z,30.2513,-88.0778,-1.72,18.7,2 
DISL,ioos:station:DISL:DISL:1,2011-03-03T08:00:00Z,30.2513,-88.0778,-1.72,18.66,2 
DISL,ioos:station:DISL:DISL:1,2011-03-03T08:30:00Z,30.2513,-88.0778,-1.72,18.19,2 
DISL,ioos:station:DISL:DISL:1,2011-03-03T09:00:00Z,30.2513,-88.0778,-1.72,18.24,2 
DISL,ioos:station:DISL:DISL:1,2011-03-03T09:30:00Z,30.2513,-88.0778,-1.72,18.23,2 
DISL,ioos:station:DISL:DISL:1,2011-03-03T10:00:00Z,30.2513,-88.0778,-1.72,18.19,2 
DISL,ioos:station:DISL:DISL:1,2011-03-03T10:30:00Z,30.2513,-88.0778,-1.72,18.02,2 
DISL,ioos:station:DISL:DISL:1,2011-03-03T11:00:00Z,30.2513,-88.0778,-1.72,17.97,2 
DISL,ioos:station:DISL:DISL:1,2011-03-03T11:30:00Z,30.2513,-88.0778,-1.72,17.97,2 
DISL,ioos:station:DISL:DISL:1,2011-03-03T12:00:00Z,30.2513,-88.0778,-1.72,17.96,2 
DISL,ioos:station:DISL:DISL:1,2011-03-03T12:30:00Z,30.2513,-88.0778,-1.72,17.89,2 
DISL,ioos:station:DISL:DISL:1,2011-03-03T13:00:00Z,30.2513,-88.0778,-1.72,17.83,2 
DISL,ioos:station:DISL:DISL:1,2011-03-03T13:30:00Z,30.2513,-88.0778,-1.72,17.87,2 
DISL,ioos:station:DISL:DISL:1,2011-03-03T14:00:00Z,30.2513,-88.0778,-1.72,17.91,2 
DISL,ioos:station:DISL:DISL:1,2011-03-03T14:30:00Z,30.2513,-88.0778,-1.72,18.05,2 
DISL,ioos:station:DISL:DISL:1,2011-03-03T15:00:00Z,30.2513,-88.0778,-1.72,18.06,2 
DISL,ioos:station:DISL:DISL:1,2011-03-03T15:30:00Z,30.2513,-88.0778,-1.72,18.08,2 
DISL,ioos:station:DISL:DISL:1,2011-03-03T16:00:00Z,30.2513,-88.0778,-1.72,18.16,2 
DISL,ioos:station:DISL:DISL:1,2011-03-03T16:30:00Z,30.2513,-88.0778,-1.72,18.21,2 
DISL,ioos:station:DISL:DISL:1,2011-03-03T17:00:00Z,30.2513,-88.0778,-1.72,18.27,2 
DISL,ioos:station:DISL:DISL:1,2011-03-03T17:30:00Z,30.2513,-88.0778,-1.72,18.27,2 
DISL,ioos:station:DISL:DISL:1,2011-03-03T18:00:00Z,30.2513,-88.0778,-1.72,18.16,2 
DISL,ioos:station:DISL:DISL:1,2011-03-03T18:30:00Z,30.2513,-88.0778,-1.72,18.18,2 
DISL,ioos:station:DISL:DISL:1,2011-03-03T19:00:00Z,30.2513,-88.0778,-1.72,18.18,2 
DISL,ioos:station:DISL:DISL:1,2011-03-03T19:30:00Z,30.2513,-88.0778,-1.72,18.17,2 
DISL,ioos:station:DISL:DISL:1,2011-03-03T20:00:00Z,30.2513,-88.0778,-1.72,18.13,2 
DISL,ioos:station:DISL:DISL:1,2011-03-03T20:30:00Z,30.2513,-88.0778,-1.72,18.2,2 
DISL,ioos:station:DISL:DISL:1,2011-03-03T21:00:00Z,30.2513,-88.0778,-1.72,18.19,2 
DISL,ioos:station:DISL:DISL:1,2011-03-03T21:30:00Z,30.2513,-88.0778,-1.72,18.12,2 
DISL,ioos:station:DISL:DISL:1,2011-03-03T22:00:00Z,30.2513,-88.0778,-1.72,18.08,2 
DISL,ioos:station:DISL:DISL:1,2011-03-03T22:30:00Z,30.2513,-88.0778,-1.72,17.95,2 
DISL,ioos:station:DISL:DISL:1,2011-03-03T23:00:00Z,30.2513,-88.0778,-1.72,17.73,2 
DISL,ioos:station:DISL:DISL:1,2011-03-03T23:30:00Z,30.2513,-88.0778,-1.72,17.64,2 
DISL,ioos:station:DISL:DISL:1,2011-03-04T00:00:00Z,30.2513,-88.0778,-1.72,17.6,2 
DISL,ioos:station:DISL:DISL:1,2011-03-04T00:30:00Z,30.2513,-88.0778,-1.72,17.67,2 
DISL,ioos:station:DISL:DISL:1,2011-03-04T01:00:00Z,30.2513,-88.0778,-1.72,17.66,2 
DISL,ioos:station:DISL:DISL:1,2011-03-04T01:30:00Z,30.2513,-88.0778,-1.72,17.64,2 
DISL,ioos:station:DISL:DISL:1,2011-03-04T02:00:00Z,30.2513,-88.0778,-1.72,17.62,2 
DISL,ioos:station:DISL:DISL:1,2011-03-04T02:30:00Z,30.2513,-88.0778,-1.72,17.62,2 
DISL,ioos:station:DISL:DISL:1,2011-03-04T03:00:00Z,30.2513,-88.0778,-1.72,17.62,2 
DISL,ioos:station:DISL:DISL:1,2011-03-04T03:30:00Z,30.2513,-88.0778,-1.72,17.58,2 
DISL,ioos:station:DISL:DISL:1,2011-03-04T04:00:00Z,30.2513,-88.0778,-1.72,17.78,2 
DISL,ioos:station:DISL:DISL:1,2011-03-04T04:30:00Z,30.2513,-88.0778,-1.72,17.9,2 
DISL,ioos:station:DISL:DISL:1,2011-03-04T05:00:00Z,30.2513,-88.0778,-1.72,17.96,2 
DISL,ioos:station:DISL:DISL:1,2011-03-04T05:30:00Z,30.2513,-88.0778,-1.72,18.01,2 
DISL,ioos:station:DISL:DISL:1,2011-03-04T06:00:00Z,30.2513,-88.0778,-1.72,18.08,2 
DISL,ioos:station:DISL:DISL:1,2011-03-04T06:30:00Z,30.2513,-88.0778,-1.72,18.06,2 
DISL,ioos:station:DISL:DISL:1,2011-03-04T07:00:00Z,30.2513,-88.0778,-1.72,18.05,2 
DISL,ioos:station:DISL:DISL:1,2011-03-04T07:30:00Z,30.2513,-88.0778,-1.72,18.03,2 
DISL,ioos:station:DISL:DISL:1,2011-03-04T08:00:00Z,30.2513,-88.0778,-1.72,18.0,2 
DISL,ioos:station:DISL:DISL:1,2011-03-04T08:30:00Z,30.2513,-88.0778,-1.72,17.98,2 
DISL,ioos:station:DISL:DISL:1,2011-03-04T09:00:00Z,30.2513,-88.0778,-1.72,17.99,2 
DISL,ioos:station:DISL:DISL:1,2011-03-04T09:30:00Z,30.2513,-88.0778,-1.72,17.98,2 
DISL,ioos:station:DISL:DISL:1,2011-03-04T10:00:00Z,30.2513,-88.0778,-1.72,18.0,2 
DISL,ioos:station:DISL:DISL:1,2011-03-04T10:30:00Z,30.2513,-88.0778,-1.72,17.96,2 
DISL,ioos:station:DISL:DISL:1,2011-03-04T11:00:00Z,30.2513,-88.0778,-1.72,17.95,2 
DISL,ioos:station:DISL:DISL:1,2011-03-04T11:30:00Z,30.2513,-88.0778,-1.72,17.91,2 
DISL,ioos:station:DISL:DISL:1,2011-03-04T12:00:00Z,30.2513,-88.0778,-1.72,17.89,2 
DISL,ioos:station:DISL:DISL:1,2011-03-04T12:30:00Z,30.2513,-88.0778,-1.72,17.89,2 
DISL,ioos:station:DISL:DISL:1,2011-03-04T13:00:00Z,30.2513,-88.0778,-1.72,17.87,2 
DISL,ioos:station:DISL:DISL:1,2011-03-04T13:30:00Z,30.2513,-88.0778,-1.72,17.83,2 
DISL,ioos:station:DISL:DISL:1,2011-03-04T14:00:00Z,30.2513,-88.0778,-1.72,17.83,2 
DISL,ioos:station:DISL:DISL:1,2011-03-04T14:30:00Z,30.2513,-88.0778,-1.72,17.78,2 
DISL,ioos:station:DISL:DISL:1,2011-03-04T15:00:00Z,30.2513,-88.0778,-1.72,17.75,2 
DISL,ioos:station:DISL:DISL:1,2011-03-04T15:30:00Z,30.2513,-88.0778,-1.72,17.74,2 
DISL,ioos:station:DISL:DISL:1,2011-03-04T16:00:00Z,30.2513,-88.0778,-1.72,17.81,2 
DISL,ioos:station:DISL:DISL:1,2011-03-04T16:30:00Z,30.2513,-88.0778,-1.72,17.84,2 
DISL,ioos:station:DISL:DISL:1,2011-03-04T17:00:00Z,30.2513,-88.0778,-1.72,17.85,2 
DISL,ioos:station:DISL:DISL:1,2011-03-04T17:30:00Z,30.2513,-88.0778,-1.72,17.87,2 
DISL,ioos:station:DISL:DISL:1,2011-03-04T18:00:00Z,30.2513,-88.0778,-1.72,17.91,2 
DISL,ioos:station:DISL:DISL:1,2011-03-04T18:30:00Z,30.2513,-88.0778,-1.72,18.05,2 
DISL,ioos:station:DISL:DISL:1,2011-03-04T19:00:00Z,30.2513,-88.0778,-1.72,18.2,2 
DISL,ioos:station:DISL:DISL:1,2011-03-04T19:30:00Z,30.2513,-88.0778,-1.72,18.24,2 
DISL,ioos:station:DISL:DISL:1,2011-03-04T20:00:00Z,30.2513,-88.0778,-1.72,18.25,2 
DISL,ioos:station:DISL:DISL:1,2011-03-04T20:30:00Z,30.2513,-88.0778,-1.72,18.26,2 
DISL,ioos:station:DISL:DISL:1,2011-03-04T21:00:00Z,30.2513,-88.0778,-1.72,18.28,2 
DISL,ioos:station:DISL:DISL:1,2011-03-04T21:30:00Z,30.2513,-88.0778,-1.72,18.23,2 
DISL,ioos:station:DISL:DISL:1,2011-03-04T22:00:00Z,30.2513,-88.0778,-1.72,18.04,2 
DISL,ioos:station:DISL:DISL:1,2011-03-04T22:30:00Z,30.2513,-88.0778,-1.72,18.03,2 
DISL,ioos:station:DISL:DISL:1,2011-03-04T23:00:00Z,30.2513,-88.0778,-1.72,17.97,2 
DISL,ioos:station:DISL:DISL:1,2011-03-04T23:30:00Z,30.2513,-88.0778,-1.72,17.86,2 
DISL,ioos:station:DISL:DISL:1,2011-03-05T00:00:00Z,30.2513,-88.0778,-1.72,17.87,2 
DISL,ioos:station:DISL:DISL:1,2011-03-05T00:30:00Z,30.2513,-88.0778,-1.72,17.89,2 
DISL,ioos:station:DISL:DISL:1,2011-03-05T01:00:00Z,30.2513,-88.0778,-1.72,17.93,2 
DISL,ioos:station:DISL:DISL:1,2011-03-05T01:30:00Z,30.2513,-88.0778,-1.72,17.97,2 
DISL,ioos:station:DISL:DISL:1,2011-03-05T02:00:00Z,30.2513,-88.0778,-1.72,18.0,2 
DISL,ioos:station:DISL:DISL:1,2011-03-05T02:30:00Z,30.2513,-88.0778,-1.72,18.01,2 
DISL,ioos:station:DISL:DISL:1,2011-03-05T03:00:00Z,30.2513,-88.0778,-1.72,18.01,2 
DISL,ioos:station:DISL:DISL:1,2011-03-05T03:30:00Z,30.2513,-88.0778,-1.72,18.03,2 
DISL,ioos:station:DISL:DISL:1,2011-03-05T04:00:00Z,30.2513,-88.0778,-1.72,18.04,2 
DISL,ioos:station:DISL:DISL:1,2011-03-05T04:30:00Z,30.2513,-88.0778,-1.72,18.03,2 
DISL,ioos:station:DISL:DISL:1,2011-03-05T05:00:00Z,30.2513,-88.0778,-1.72,18.01,2 
DISL,ioos:station:DISL:DISL:1,2011-03-05T05:30:00Z,30.2513,-88.0778,-1.72,18.01,2 
DISL,ioos:station:DISL:DISL:1,2011-03-05T06:00:00Z,30.2513,-88.0778,-1.72,18.0,2 
DISL,ioos:station:DISL:DISL:1,2011-03-05T06:30:00Z,30.2513,-88.0778,-1.72,18.0,2 
DISL,ioos:station:DISL:DISL:1,2011-03-05T07:00:00Z,30.2513,-88.0778,-1.72,17.99,2 
DISL,ioos:station:DISL:DISL:1,2011-03-05T07:30:00Z,30.2513,-88.0778,-1.72,17.98,2 
DISL,ioos:station:DISL:DISL:1,2011-03-05T08:00:00Z,30.2513,-88.0778,-1.72,17.97,2 
DISL,ioos:station:DISL:DISL:1,2011-03-05T08:30:00Z,30.2513,-88.0778,-1.72,17.91,2 
DISL,ioos:station:DISL:DISL:1,2011-03-05T09:00:00Z,30.2513,-88.0778,-1.72,17.78,2 
DISL,ioos:station:DISL:DISL:1,2011-03-05T09:30:00Z,30.2513,-88.0778,-1.72,17.74,2 
DISL,ioos:station:DISL:DISL:1,2011-03-05T10:00:00Z,30.2513,-88.0778,-1.72,17.74,2 
DISL,ioos:station:DISL:DISL:1,2011-03-05T10:30:00Z,30.2513,-88.0778,-1.72,17.73,2 
DISL,ioos:station:DISL:DISL:1,2011-03-05T11:00:00Z,30.2513,-88.0778,-1.72,17.73,2 
DISL,ioos:station:DISL:DISL:1,2011-03-05T11:30:00Z,30.2513,-88.0778,-1.72,17.73,2 
DISL,ioos:station:DISL:DISL:1,2011-03-05T12:00:00Z,30.2513,-88.0778,-1.72,17.73,2 
DISL,ioos:station:DISL:DISL:1,2011-03-05T12:30:00Z,30.2513,-88.0778,-1.72,17.74,2 
DISL,ioos:station:DISL:DISL:1,2011-03-05T13:00:00Z,30.2513,-88.0778,-1.72,17.74,2 
DISL,ioos:station:DISL:DISL:1,2011-03-05T13:30:00Z,30.2513,-88.0778,-1.72,17.75,2 
DISL,ioos:station:DISL:DISL:1,2011-03-05T14:00:00Z,30.2513,-88.0778,-1.72,17.75,2 
DISL,ioos:station:DISL:DISL:1,2011-03-05T14:30:00Z,30.2513,-88.0778,-1.72,17.77,2 
DISL,ioos:station:DISL:DISL:1,2011-03-05T15:00:00Z,30.2513,-88.0778,-1.72,17.8,2 
DISL,ioos:station:DISL:DISL:1,2011-03-05T15:30:00Z,30.2513,-88.0778,-1.72,17.81,2 
DISL,ioos:station:DISL:DISL:1,2011-03-05T16:00:00Z,30.2513,-88.0778,-1.72,17.81,2 
DISL,ioos:station:DISL:DISL:1,2011-03-05T16:30:00Z,30.2513,-88.0778,-1.72,17.81,2 
DISL,ioos:station:DISL:DISL:1,2011-03-05T17:00:00Z,30.2513,-88.0778,-1.72,17.82,2 
DISL,ioos:station:DISL:DISL:1,2011-03-05T17:30:00Z,30.2513,-88.0778,-1.72,17.82,2 
DISL,ioos:station:DISL:DISL:1,2011-03-05T18:00:00Z,30.2513,-88.0778,-1.72,17.85,2 
DISL,ioos:station:DISL:DISL:1,2011-03-05T18:30:00Z,30.2513,-88.0778,-1.72,17.85,2 
DISL,ioos:station:DISL:DISL:1,2011-03-05T19:00:00Z,30.2513,-88.0778,-1.72,17.91,2 
DISL,ioos:station:DISL:DISL:1,2011-03-05T19:30:00Z,30.2513,-88.0778,-1.72,17.96,2 
DISL,ioos:station:DISL:DISL:1,2011-03-05T20:00:00Z,30.2513,-88.0778,-1.72,17.99,2 
DISL,ioos:station:DISL:DISL:1,2011-03-05T20:30:00Z,30.2513,-88.0778,-1.72,18.04,2 
DISL,ioos:station:DISL:DISL:1,2011-03-05T21:00:00Z,30.2513,-88.0778,-1.72,18.02,2 
DISL,ioos:station:DISL:DISL:1,2011-03-05T21:30:00Z,30.2513,-88.0778,-1.72,18.01,2 
DISL,ioos:station:DISL:DISL:1,2011-03-05T22:00:00Z,30.2513,-88.0778,-1.72,17.98,2 
DISL,ioos:station:DISL:DISL:1,2011-03-05T22:30:00Z,30.2513,-88.0778,-1.72,17.94,2 
DISL,ioos:station:DISL:DISL:1,2011-03-05T23:00:00Z,30.2513,-88.0778,-1.72,17.96,2 
DISL,ioos:station:DISL:DISL:1,2011-03-05T23:30:00Z,30.2513,-88.0778,-1.72,17.97,2 
DISL,ioos:station:DISL:DISL:1,2011-03-06T00:00:00Z,30.2513,-88.0778,-1.72,17.96,2 
DISL,ioos:station:DISL:DISL:1,2011-03-06T00:30:00Z,30.2513,-88.0778,-1.72,17.95,2 
DISL,ioos:station:DISL:DISL:1,2011-03-06T01:00:00Z,30.2513,-88.0778,-1.72,17.94,2 
DISL,ioos:station:DISL:DISL:1,2011-03-06T01:30:00Z,30.2513,-88.0778,-1.72,17.95,2 
DISL,ioos:station:DISL:DISL:1,2011-03-06T02:00:00Z,30.2513,-88.0778,-1.72,17.88,2 
DISL,ioos:station:DISL:DISL:1,2011-03-06T02:30:00Z,30.2513,-88.0778,-1.72,17.89,2 
DISL,ioos:station:DISL:DISL:1,2011-03-06T03:00:00Z,30.2513,-88.0778,-1.72,17.87,2 
DISL,ioos:station:DISL:DISL:1,2011-03-06T03:30:00Z,30.2513,-88.0778,-1.72,17.89,2 
DISL,ioos:station:DISL:DISL:1,2011-03-06T04:00:00Z,30.2513,-88.0778,-1.72,17.85,2 
DISL,ioos:station:DISL:DISL:1,2011-03-06T04:30:00Z,30.2513,-88.0778,-1.72,17.79,2 
DISL,ioos:station:DISL:DISL:1,2011-03-06T05:00:00Z,30.2513,-88.0778,-1.72,17.78,2 
DISL,ioos:station:DISL:DISL:1,2011-03-06T05:30:00Z,30.2513,-88.0778,-1.72,17.7,2 
DISL,ioos:station:DISL:DISL:1,2011-03-06T06:00:00Z,30.2513,-88.0778,-1.72,17.71,2 
DISL,ioos:station:DISL:DISL:1,2011-03-06T06:30:00Z,30.2513,-88.0778,-1.72,17.67,2 
DISL,ioos:station:DISL:DISL:1,2011-03-06T07:00:00Z,30.2513,-88.0778,-1.72,17.65,2 
DISL,ioos:station:DISL:DISL:1,2011-03-06T07:30:00Z,30.2513,-88.0778,-1.72,17.63,2 
DISL,ioos:station:DISL:DISL:1,2011-03-06T08:00:00Z,30.2513,-88.0778,-1.72,17.39,2 
DISL,ioos:station:DISL:DISL:1,2011-03-06T08:30:00Z,30.2513,-88.0778,-1.72,17.29,2 
DISL,ioos:station:DISL:DISL:1,2011-03-06T09:00:00Z,30.2513,-88.0778,-1.72,17.42,2 
DISL,ioos:station:DISL:DISL:1,2011-03-06T09:30:00Z,30.2513,-88.0778,-1.72,17.3,2 
DISL,ioos:station:DISL:DISL:1,2011-03-06T10:00:00Z,30.2513,-88.0778,-1.72,17.03,2 
DISL,ioos:station:DISL:DISL:1,2011-03-06T10:30:00Z,30.2513,-88.0778,-1.72,16.9,2 
DISL,ioos:station:DISL:DISL:1,2011-03-06T11:00:00Z,30.2513,-88.0778,-1.72,16.78,2 
DISL,ioos:station:DISL:DISL:1,2011-03-06T11:30:00Z,30.2513,-88.0778,-1.72,16.58,2 
DISL,ioos:station:DISL:DISL:1,2011-03-06T12:00:00Z,30.2513,-88.0778,-1.72,16.73,2 
DISL,ioos:station:DISL:DISL:1,2011-03-06T12:30:00Z,30.2513,-88.0778,-1.72,16.85,2 
DISL,ioos:station:DISL:DISL:1,2011-03-06T13:00:00Z,30.2513,-88.0778,-1.72,16.44,2 
DISL,ioos:station:DISL:DISL:1,2011-03-06T13:30:00Z,30.2513,-88.0778,-1.72,16.7,2 
DISL,ioos:station:DISL:DISL:1,2011-03-06T14:00:00Z,30.2513,-88.0778,-1.72,16.3,2 
DISL,ioos:station:DISL:DISL:1,2011-03-06T14:30:00Z,30.2513,-88.0778,-1.72,16.13,2 
DISL,ioos:station:DISL:DISL:1,2011-03-06T15:00:00Z,30.2513,-88.0778,-1.72,16.37,2 
DISL,ioos:station:DISL:DISL:1,2011-03-06T15:30:00Z,30.2513,-88.0778,-1.72,16.39,2 
DISL,ioos:station:DISL:DISL:1,2011-03-06T16:00:00Z,30.2513,-88.0778,-1.72,16.25,2 
DISL,ioos:station:DISL:DISL:1,2011-03-06T16:30:00Z,30.2513,-88.0778,-1.72,16.13,2 
DISL,ioos:station:DISL:DISL:1,2011-03-06T17:00:00Z,30.2513,-88.0778,-1.72,16.15,2 
DISL,ioos:station:DISL:DISL:1,2011-03-06T17:30:00Z,30.2513,-88.0778,-1.72,15.99,2 
DISL,ioos:station:DISL:DISL:1,2011-03-06T18:00:00Z,30.2513,-88.0778,-1.72,15.76,2 
DISL,ioos:station:DISL:DISL:1,2011-03-06T18:30:00Z,30.2513,-88.0778,-1.72,15.54,2 
DISL,ioos:station:DISL:DISL:1,2011-03-06T19:00:00Z,30.2513,-88.0778,-1.72,15.69,2 
DISL,ioos:station:DISL:DISL:1,2011-03-06T19:30:00Z,30.2513,-88.0778,-1.72,15.78,2 
DISL,ioos:station:DISL:DISL:1,2011-03-06T20:00:00Z,30.2513,-88.0778,-1.72,15.9,2 
DISL,ioos:station:DISL:DISL:1,2011-03-06T20:30:00Z,30.2513,-88.0778,-1.72,16.09,2 
DISL,ioos:station:DISL:DISL:1,2011-03-06T21:00:00Z,30.2513,-88.0778,-1.72,16.3,2 
DISL,ioos:station:DISL:DISL:1,2011-03-06T21:30:00Z,30.2513,-88.0778,-1.72,16.4,2 
DISL,ioos:station:DISL:DISL:1,2011-03-06T22:00:00Z,30.2513,-88.0778,-1.72,16.47,2 
DISL,ioos:station:DISL:DISL:1,2011-03-06T22:30:00Z,30.2513,-88.0778,-1.72,16.53,2 
DISL,ioos:station:DISL:DISL:1,2011-03-06T23:00:00Z,30.2513,-88.0778,-1.72,16.74,2 
DISL,ioos:station:DISL:DISL:1,2011-03-06T23:30:00Z,30.2513,-88.0778,-1.72,16.89,2 